Location: *
(51.2167°N, 10.0667°E)
Time: 03:23:07
(UTC+00:00)

Cosmos 1174 - Pass Details

Date: 12 December 2019
Orbit: 376 x 1144 km, 66.1° (Epoch: 20 January)

Event Time Altitude Azimuth Distance (km) Brightness Sun altitude
Rises 17:49:57 0° 222° (SW) 3,165 8.4 -23.4°
Reaches altitude 10° 17:52:34 10° 224° (SW) 2,110 7.4 -23.8°
Enters shadow 17:57:09 74° 290° (WNW) 600 4.0 -24.5°
